Time,TemperatureF,DewpointF,PressureIn,WindDirection,WindDirectionDegrees,WindSpeedMPH,WindSpeedGustMPH,Humidity,HourlyPrecipIn,Conditions,Clouds,dailyrainin,SoftwareType,DateUTC
2013-04-29 00:12:00,54.0,54.0,30.05,SE,128,0.0,0.0,100,0.01,,,0.00,weatherlink.com 1.10,2013-04-29 04:12:00,
2013-04-29 00:27:00,53.8,54.0,30.06,SE,128,0.0,0.0,100,0.01,,,0.00,weatherlink.com 1.10,2013-04-29 04:27:00,
2013-04-29 00:42:00,53.8,54.0,30.05,SE,128,0.0,1.0,100,0.02,,,0.01,weatherlink.com 1.10,2013-04-29 04:42:00,
2013-04-29 00:57:00,53.7,54.0,30.04,SE,128,0.0,1.0,100,0.02,,,0.02,weatherlink.com 1.10,2013-04-29 04:57:00,
2013-04-29 01:12:00,53.7,54.0,30.05,SE,128,0.0,1.0,100,0.03,,,0.03,weatherlink.com 1.10,2013-04-29 05:12:00,
2013-04-29 01:27:00,53.7,54.0,30.05,SSW,206,0.0,4.0,100,0.04,,,0.04,weatherlink.com 1.10,2013-04-29 05:27:00,
2013-04-29 01:42:00,53.5,54.0,30.05,SSW,206,0.0,1.0,100,0.03,,,0.04,weatherlink.com 1.10,2013-04-29 05:42:00,
2013-04-29 01:57:00,53.5,54.0,30.05,SSW,206,0.0,1.0,100,0.02,,,0.04,weatherlink.com 1.10,2013-04-29 05:57:00,
2013-04-29 02:12:00,53.4,53.0,30.05,SSW,206,0.0,0.0,100,0.01,,,0.04,weatherlink.com 1.10,2013-04-29 06:12:00,
2013-04-29 02:27:00,53.4,53.0,30.04,SSW,206,0.0,0.0,100,0.01,,,0.05,weatherlink.com 1.10,2013-04-29 06:27:00,
2013-04-29 02:42:00,53.4,53.0,30.04,SSW,206,0.0,0.0,100,0.01,,,0.05,weatherlink.com 1.10,2013-04-29 06:42:00,
2013-04-29 02:57:00,53.5,54.0,30.03,SSW,206,0.0,1.0,100,0.02,,,0.06,weatherlink.com 1.10,2013-04-29 06:57:00,
2013-04-29 03:12:00,53.4,53.0,30.02,SSW,206,0.0,0.0,100,0.02,,,0.06,weatherlink.com 1.10,2013-04-29 07:12:00,
2013-04-29 03:27:00,53.3,53.0,30.01,SSW,206,0.0,1.0,100,0.02,,,0.07,weatherlink.com 1.10,2013-04-29 07:27:00,
2013-04-29 03:42:00,53.3,53.0,30.00,SSW,206,0.0,2.0,100,0.02,,,0.07,weatherlink.com 1.10,2013-04-29 07:42:00,
2013-04-29 03:57:00,53.3,53.0,30.01,SSW,206,0.0,1.0,100,0.01,,,0.07,weatherlink.com 1.10,2013-04-29 07:57:00,
2013-04-29 04:12:00,53.3,53.0,30.02,SSW,206,0.0,0.0,100,0.02,,,0.08,weatherlink.com 1.10,2013-04-29 08:12:00,
2013-04-29 04:27:00,53.3,53.0,30.01,SSW,206,0.0,0.0,100,0.01,,,0.08,weatherlink.com 1.10,2013-04-29 08:27:00,
2013-04-29 04:42:00,53.4,53.0,30.01,SSW,206,0.0,0.0,100,0.01,,,0.08,weatherlink.com 1.10,2013-04-29 08:42:00,
2013-04-29 04:57:00,53.5,54.0,30.01,SSW,206,0.0,0.0,100,0.01,,,0.08,weatherlink.com 1.10,2013-04-29 08:57:00,
2013-04-29 05:12:00,53.4,53.0,30.01,SSW,206,0.0,1.0,100,0.00,,,0.08,weatherlink.com 1.10,2013-04-29 09:12:00,
2013-04-29 05:27:00,53.4,53.0,30.01,SSW,206,0.0,0.0,100,0.00,,,0.08,weatherlink.com 1.10,2013-04-29 09:27:00,
2013-04-29 05:42:00,53.4,53.0,30.00,SSW,206,0.0,0.0,100,0.00,,,0.08,weatherlink.com 1.10,2013-04-29 09:42:00,
2013-04-29 05:57:00,53.4,53.0,30.01,SSW,206,0.0,1.0,100,0.00,,,0.08,weatherlink.com 1.10,2013-04-29 09:57:00,
2013-04-29 06:12:00,53.4,53.0,30.01,SSW,206,0.0,1.0,100,0.00,,,0.08,weatherlink.com 1.10,2013-04-29 10:12:00,
2013-04-29 06:27:00,53.5,54.0,30.02,SSW,206,0.0,0.0,100,0.00,,,0.08,weatherlink.com 1.10,2013-04-29 10:27:00,
2013-04-29 06:42:00,53.5,54.0,30.02,SSW,206,0.0,0.0,100,0.00,,,0.08,weatherlink.com 1.10,2013-04-29 10:42:00,
2013-04-29 06:57:00,53.6,54.0,30.02,SSW,206,0.0,3.0,100,0.00,,,0.08,weatherlink.com 1.10,2013-04-29 10:57:00,
2013-04-29 07:12:00,53.7,54.0,30.03,SSW,206,0.0,0.0,100,0.00,,,0.08,weatherlink.com 1.10,2013-04-29 11:12:00,
2013-04-29 07:27:00,53.8,54.0,30.04,SSW,206,0.0,0.0,100,0.00,,,0.08,weatherlink.com 1.10,2013-04-29 11:27:00,
2013-04-29 07:42:00,53.9,54.0,30.03,SSW,206,0.0,0.0,100,0.00,,,0.08,weatherlink.com 1.10,2013-04-29 11:42:00,
2013-04-29 07:57:00,54.1,54.0,30.02,SSW,206,0.0,3.0,100,0.00,,,0.08,weatherlink.com 1.10,2013-04-29 11:57:00,
2013-04-29 08:13:00,54.1,54.0,30.03,SSW,206,0.0,1.0,100,0.00,,,0.08,weatherlink.com 1.10,2013-04-29 12:13:00,
2013-04-29 08:27:00,54.2,54.0,30.02,SSW,206,1.0,1.0,100,0.00,,,0.08,weatherlink.com 1.10,2013-04-29 12:27:00,
2013-04-29 08:43:00,54.4,54.0,30.03,SSW,206,0.0,1.0,100,0.00,,,0.08,weatherlink.com 1.10,2013-04-29 12:43:00,
2013-04-29 08:58:00,54.7,55.0,30.03,SSW,206,0.0,2.0,100,0.00,,,0.08,weatherlink.com 1.10,2013-04-29 12:58:00,
2013-04-29 09:13:00,55.1,55.0,30.03,SSW,206,0.0,1.0,100,0.00,,,0.08,weatherlink.com 1.10,2013-04-29 13:13:00,
2013-04-29 09:28:00,55.3,55.0,30.03,SSW,206,0.0,0.0,100,0.00,,,0.08,weatherlink.com 1.10,2013-04-29 13:28:00,
2013-04-29 09:43:00,55.5,56.0,30.03,SSW,206,0.0,1.0,100,0.00,,,0.08,weatherlink.com 1.10,2013-04-29 13:43:00,
2013-04-29 09:58:00,55.7,56.0,30.03,SSW,206,0.0,1.0,100,0.00,,,0.08,weatherlink.com 1.10,2013-04-29 13:58:00,
2013-04-29 10:13:00,56.0,56.0,30.03,SSW,206,0.0,0.0,100,0.00,,,0.08,weatherlink.com 1.10,2013-04-29 14:13:00,
2013-04-29 10:28:00,56.2,56.0,30.03,SSW,206,0.0,1.0,100,0.00,,,0.08,weatherlink.com 1.10,2013-04-29 14:28:00,
2013-04-29 10:43:00,56.5,57.0,30.03,SSW,206,0.0,2.0,100,0.00,,,0.08,weatherlink.com 1.10,2013-04-29 14:43:00,
2013-04-29 10:58:00,57.1,57.0,30.04,SE,129,0.0,4.0,100,0.00,,,0.08,weatherlink.com 1.10,2013-04-29 14:58:00,
2013-04-29 11:13:00,57.7,58.0,30.04,SE,129,0.0,0.0,100,0.00,,,0.08,weatherlink.com 1.10,2013-04-29 15:13:00,
2013-04-29 11:28:00,58.6,59.0,30.04,SE,129,0.0,1.0,100,0.00,,,0.08,weatherlink.com 1.10,2013-04-29 15:28:00,
2013-04-29 11:43:00,59.0,59.0,30.03,SE,129,0.0,1.0,100,0.00,,,0.08,weatherlink.com 1.10,2013-04-29 15:43:00,
2013-04-29 11:58:00,59.9,60.0,30.03,SE,129,0.0,2.0,99,0.00,,,0.08,weatherlink.com 1.10,2013-04-29 15:58:00,
2013-04-29 12:13:00,60.9,60.0,30.03,SSE,149,1.0,3.0,95,0.01,,,0.09,weatherlink.com 1.10,2013-04-29 16:13:00,
2013-04-29 12:28:00,60.8,59.0,30.03,ESE,121,1.0,3.0,95,0.01,,,0.09,weatherlink.com 1.10,2013-04-29 16:28:00,
2013-04-29 12:43:00,61.6,60.0,30.03,ESE,121,0.0,3.0,95,0.01,,,0.09,weatherlink.com 1.10,2013-04-29 16:43:00,
2013-04-29 12:58:00,62.1,60.0,30.02,ESE,121,1.0,3.0,94,0.01,,,0.09,weatherlink.com 1.10,2013-04-29 16:58:00,
2013-04-29 13:13:00,63.4,61.0,30.02,ESE,121,1.0,3.0,92,0.00,,,0.09,weatherlink.com 1.10,2013-04-29 17:13:00,
2013-04-29 13:28:00,64.2,61.0,30.02,SSE,149,0.0,5.0,90,0.00,,,0.09,weatherlink.com 1.10,2013-04-29 17:28:00,
2013-04-29 13:43:00,62.9,61.0,30.01,ESE,104,0.0,8.0,92,0.00,,,0.09,weatherlink.com 1.10,2013-04-29 17:43:00,
2013-04-29 13:58:00,64.0,61.0,30.01,ENE,76,6.0,6.0,91,0.00,,,0.09,weatherlink.com 1.10,2013-04-29 17:58:00,
2013-04-29 14:13:00,65.4,62.0,30.00,ESE,102,1.0,5.0,89,0.00,,,0.09,weatherlink.com 1.10,2013-04-29 18:13:00,
2013-04-29 14:28:00,65.3,62.0,30.00,ESE,109,0.0,4.0,88,0.00,,,0.09,weatherlink.com 1.10,2013-04-29 18:28:00,
2013-04-29 14:43:00,65.9,62.0,29.99,ESE,121,0.0,4.0,86,0.00,,,0.09,weatherlink.com 1.10,2013-04-29 18:43:00,
2013-04-29 14:58:00,67.5,62.0,29.98,ESE,106,3.0,6.0,83,0.00,,,0.09,weatherlink.com 1.10,2013-04-29 18:58:00,
2013-04-29 15:13:00,67.1,62.0,29.98,ESE,106,0.0,9.0,83,0.00,,,0.09,weatherlink.com 1.10,2013-04-29 19:13:00,
2013-04-29 15:28:00,67.5,62.0,29.97,East,101,2.0,9.0,82,0.00,,,0.09,weatherlink.com 1.10,2013-04-29 19:28:00,
2013-04-29 15:43:00,67.2,61.0,29.96,SE,127,2.0,8.0,79,0.00,,,0.09,weatherlink.com 1.10,2013-04-29 19:43:00,
2013-04-29 15:59:00,67.5,62.0,29.95,ESE,114,4.0,8.0,82,0.00,,,0.09,weatherlink.com 1.10,2013-04-29 19:59:00,
2013-04-29 16:29:00,68.8,60.0,29.94,ESE,112,4.0,7.0,73,0.00,,,0.09,weatherlink.com 1.10,2013-04-29 20:29:00,
2013-04-29 16:44:00,68.5,60.0,29.94,East,89,5.0,11.0,73,0.00,,,0.09,weatherlink.com 1.10,2013-04-29 20:44:00,
2013-04-29 16:59:00,68.6,60.0,29.93,East,100,3.0,5.0,75,0.00,,,0.09,weatherlink.com 1.10,2013-04-29 20:59:00,
2013-04-29 17:14:00,69.7,60.0,29.93,ENE,75,2.0,7.0,72,0.00,,,0.09,weatherlink.com 1.10,2013-04-29 21:14:00,
2013-04-29 17:29:00,70.1,60.0,29.93,SE,127,3.0,6.0,71,0.00,,,0.09,weatherlink.com 1.10,2013-04-29 21:29:00,
2013-04-29 17:44:00,70.2,61.0,29.93,East,91,1.0,5.0,72,0.00,,,0.09,weatherlink.com 1.10,2013-04-29 21:44:00,
2013-04-29 17:59:00,70.5,60.0,29.92,South,170,0.0,5.0,69,0.00,,,0.09,weatherlink.com 1.10,2013-04-29 21:59:00,
2013-04-29 18:14:00,70.4,60.0,29.92,SSE,168,1.0,5.0,70,0.00,,,0.09,weatherlink.com 1.10,2013-04-29 22:14:00,
2013-04-29 18:29:00,70.1,59.0,29.92,SE,135,1.0,3.0,69,0.00,,,0.09,weatherlink.com 1.10,2013-04-29 22:29:00,
2013-04-29 18:44:00,70.1,60.0,29.92,East,86,1.0,5.0,70,0.00,,,0.09,weatherlink.com 1.10,2013-04-29 22:44:00,
2013-04-29 18:59:00,69.9,59.0,29.92,East,93,0.0,2.0,68,0.00,,,0.09,weatherlink.com 1.10,2013-04-29 22:59:00,
2013-04-29 19:14:00,69.0,60.0,29.93,ESE,108,0.0,4.0,74,0.00,,,0.09,weatherlink.com 1.10,2013-04-29 23:14:00,
2013-04-29 19:29:00,68.3,60.0,29.93,ESE,104,0.0,4.0,74,0.00,,,0.09,weatherlink.com 1.10,2013-04-29 23:29:00,
2013-04-29 19:44:00,68.0,61.0,29.93,ESE,104,0.0,0.0,78,0.00,,,0.09,weatherlink.com 1.10,2013-04-29 23:44:00,
2013-04-29 19:59:00,66.8,61.0,29.94,ESE,104,0.0,0.0,81,0.00,,,0.09,weatherlink.com 1.10,2013-04-29 23:59:00,
2013-04-29 20:14:00,65.6,61.0,29.95,ESE,104,0.0,0.0,84,0.00,,,0.09,weatherlink.com 1.10,2013-04-30 00:14:00,
2013-04-29 20:29:00,64.3,60.0,29.95,ESE,104,0.0,0.0,87,0.00,,,0.09,weatherlink.com 1.10,2013-04-30 00:29:00,
2013-04-29 20:44:00,63.4,60.0,29.96,ESE,104,0.0,0.0,88,0.00,,,0.09,weatherlink.com 1.10,2013-04-30 00:44:00,
2013-04-29 20:59:00,62.7,60.0,29.96,ESE,104,0.0,0.0,90,0.00,,,0.09,weatherlink.com 1.10,2013-04-30 00:59:00,
2013-04-29 21:14:00,61.9,60.0,29.96,ESE,104,0.0,0.0,92,0.00,,,0.09,weatherlink.com 1.10,2013-04-30 01:14:00,
2013-04-29 21:29:00,61.3,60.0,29.97,ESE,104,0.0,0.0,94,0.00,,,0.09,weatherlink.com 1.10,2013-04-30 01:29:00,
2013-04-29 21:44:00,61.2,60.0,29.97,ESE,104,0.0,0.0,94,0.00,,,0.09,weatherlink.com 1.10,2013-04-30 01:44:00,
2013-04-29 21:59:00,61.1,60.0,29.98,ESE,104,0.0,0.0,95,0.00,,,0.09,weatherlink.com 1.10,2013-04-30 01:59:00,
2013-04-29 22:14:00,60.9,60.0,29.98,ESE,104,0.0,0.0,96,0.00,,,0.09,weatherlink.com 1.10,2013-04-30 02:14:00,
2013-04-29 22:29:00,60.7,60.0,29.99,ESE,104,0.0,0.0,96,0.00,,,0.09,weatherlink.com 1.10,2013-04-30 02:29:00,
2013-04-29 22:44:00,60.2,59.0,29.99,ESE,104,0.0,0.0,97,0.00,,,0.09,weatherlink.com 1.10,2013-04-30 02:44:00,
2013-04-29 22:59:00,59.9,59.0,29.98,ESE,104,0.0,0.0,97,0.00,,,0.09,weatherlink.com 1.10,2013-04-30 02:59:00,
2013-04-29 23:14:00,59.5,59.0,29.98,ESE,104,0.0,0.0,98,0.00,,,0.09,weatherlink.com 1.10,2013-04-30 03:14:00,
2013-04-29 23:29:00,59.0,59.0,29.98,ESE,104,0.0,0.0,99,0.00,,,0.09,weatherlink.com 1.10,2013-04-30 03:29:00,
2013-04-29 23:44:00,58.7,59.0,29.98,ESE,104,0.0,0.0,99,0.00,,,0.09,weatherlink.com 1.10,2013-04-30 03:44:00,
2013-04-29 23:59:00,58.3,58.0,29.98,ESE,104,0.0,0.0,100,0.00,,,0.09,weatherlink.com 1.10,2013-04-30 03:59:00,